{"data":{"norad_id":53050,"epoch":"2026-09-19T17:41:06.149472Z","epoch_age_seconds":135360,"freshness":"FRESH","line1":"1 53050U 22077H   26262.73687673  .00000301  00000+0  11653-4 0  9999","line2":"2 53050  97.2855  78.5095 0001314  90.2522 269.8871 15.33434919230237","mean_motion":15.33434919,"eccentricity":0.0001314,"inclination_deg":97.2855,"raan_deg":78.5095,"arg_perigee_deg":90.2522,"mean_anomaly_deg":269.8871,"bstar":1.1653e-5,"rev_number":23023,"period_min":93.906822008401,"perigee_km":464.67390508971,"apogee_km":466.47243212202,"semimajor_km":6843.7101686059,"source":"CELESTRAK","updated_at":"2026-09-20T09:00:40.151167Z"}}